User: anonymous   Login
Location: NJAA Observatory
(40.6819°N, 74.8979°W)
Time: 12:10:19
(UTC-04:00)
Language:

Cosmos 1633 - Orbit

View from above orbital plane
View from above orbital plane
View from above satellite
View from above satellite

Ground track
Ground track

The orbit data is extracted from the following two-line orbital elements,

1 15592U 85020A   16126.12395492  .00002793  00000-0  10454-3 0  9996
2 15592  82.5404   7.6598 0014455 171.9166 188.2308 15.26780998701993
Epoch (UTC): 05 May 2016 02:58:29
Eccentricity: 0.0014455
inclination: 82.5404°
perigee height: 475 km
apogee height: 495 km
right ascension of ascending node: 7.6598°
argument of perigee: 171.9166°
revolutions per day: 15.26780998
mean anomaly at epoch: 188.2308°
orbit number at epoch: 70199

The dashed part of the orbit path shows where the satellite is in the earth's shadow,  

DLR